"Pseudo-MPEC" for P10HjmZ

Created 2018 Apr 23 1:18:05 UT using Find_Orb

Click here for an explanation of pseudo-MPECs

 
 Astrometry: 
     P10HjmZ  C2018 04 13opAstrometry-CM1qwp\L+A^=vfy#MjU:$_][5RQBuX^a)51cL]IF51
     P10HjmZ  C2018 04 13G]-dYt=7!-F;e_xFtredacted;*RdTAnCRWo6MhZ-bwxc^DXJ)1pF51
     P10HjmZ  C2018 04 13#;sug'[$Ilt_Mj2;KsWHqta;R1x=[U38seeN.%/%:4N,b33,yNWMF51
     P10HjmZ  C2018 04 13_ZDYA:f,l)AHYv%^`*RN29jyLvxUTK:hJtc`o0CjX`J/?bINEOCPF51

Station data:
(F51) Pan-STARRS 1, Haleakala  (N20.707235 W156.255910)  US/Hawaii.
   Observers N. Primak, A. Schultz, S. Watters, J. Thiel, T. Goggia. Measurer
   PS1 Science Consortium. 1.8-m Ritchey-Chrétien + CCD.

Orbital elements:  P10HjmZ
   Perihelion 2018 Sep 14.248202 +/- 125 TT =  5:57:24 (JD 2458375.748202)
Epoch 2018 Apr 13.0 TT = JDT 2458221.5   Earth MOID: 0.0009   AutoNEOCP
M 209.14045 +/- 110                 (J2000 ecliptic)
n   0.97803112 +/- 0.487            Peri.  273.98205 +/- 55
a   1.00515783 +/- 0.334            Node    83.73815 +/- 60
e   0.0766389 +/- 0.243             Incl.    0.44052 +/- 70
P   1.01/368.08d           H 27.3   G  0.15   U 12.3  SR
q 0.92812360 +/- 0.576    Q 1.08219207 +/- 15.2
From 4 observations 2018 Apr. 13 (51.8 min); mean residual 0".10
Residuals in arcseconds: 
180413 F51  .10+  .03+    180413 F51  .13+  .09-    
180413 F51  .21-  .00     180413 F51  .02-  .06+    

Ephemerides (geocentric):
Date (UTC) HH   RA              Dec         delta   r     elong  mag " sig PA
---- -- -- --  ------------   ------------  ------ ------ -----  --- ---- ---
2018 04 23 01  13 04 33.483   -00 41 48.39  .06493 1.0672 161.7 22.5  34d   3
2018 04 23 02  13 04 23.963   -00 40 55.11  .06491 1.0672 161.6 22.5  34d   3
2018 04 23 03  13 04 14.443   -00 40 01.87  .06490 1.0671 161.5 22.5  35d   3
2018 04 23 04  13 04 04.923   -00 39 08.65  .06488 1.0671 161.4 22.5  35d   3
2018 04 23 05  13 03 55.404   -00 38 15.46  .06487 1.0671 161.4 22.5  35d   3
2018 04 23 06  13 03 45.885   -00 37 22.30  .06485 1.0670 161.3 22.5  35d   3
2018 04 23 07  13 03 36.367   -00 36 29.17  .06484 1.0670 161.2 22.5  35d   3
2018 04 23 08  13 03 26.849   -00 35 36.08  .06482 1.0670 161.1 22.5  35d   3
2018 04 23 09  13 03 17.331   -00 34 43.01  .06480 1.0669 161.0 22.5  35d   3
2018 04 23 10  13 03 07.814   -00 33 49.98  .06479 1.0669 161.0 22.5  35d   3
2018 04 23 11  13 02 58.297   -00 32 56.98  .06477 1.0669 160.9 22.5  35d   3
2018 04 23 12  13 02 48.781   -00 32 04.01  .06476 1.0668 160.8 22.5  35d   3
2018 04 23 13  13 02 39.266   -00 31 11.07  .06474 1.0668 160.7 22.5  35d   3
2018 04 23 14  13 02 29.752   -00 30 18.16  .06473 1.0668 160.6 22.5  35d   3
2018 04 23 15  13 02 20.238   -00 29 25.29  .06471 1.0668 160.6 22.5  35d   3
2018 04 23 16  13 02 10.724   -00 28 32.45  .06470 1.0667 160.5 22.5  35d   3
2018 04 23 17  13 02 01.212   -00 27 39.64  .06468 1.0667 160.4 22.5  35d   3
2018 04 23 18  13 01 51.701   -00 26 46.87  .06467 1.0667 160.3 22.5  35d   3
2018 04 23 19  13 01 42.190   -00 25 54.13  .06466 1.0666 160.2 22.5  35d   3
2018 04 23 20  13 01 32.680   -00 25 01.43  .06464 1.0666 160.2 22.5  35d   3
2018 04 23 21  13 01 23.171   -00 24 08.75  .06463 1.0666 160.1 22.5  35d   3
2018 04 23 22  13 01 13.664   -00 23 16.12  .06461 1.0665 160.0 22.5  35d   3
2018 04 23 23  13 01 04.157   -00 22 23.52  .06460 1.0665 159.9 22.5  35d   3
2018 04 24 00  13 00 54.651   -00 21 30.95  .06458 1.0665 159.9 22.5  35d   3
2018 04 24 01  13 00 45.147   -00 20 38.42  .06457 1.0664 159.8 22.5  35d   3
2018 04 24 02  13 00 35.643   -00 19 45.92  .06456 1.0664 159.7 22.5  35d   3
2018 04 24 03  13 00 26.141   -00 18 53.46  .06454 1.0664 159.6 22.5  35d   3
2018 04 24 04  13 00 16.640   -00 18 01.04  .06453 1.0663 159.5 22.5  35d   3
2018 04 24 05  13 00 07.140   -00 17 08.65  .06451 1.0663 159.5 22.5  35d   3
2018 04 24 06  12 59 57.642   -00 16 16.30  .06450 1.0663 159.4 22.5  35d   3
2018 04 24 07  12 59 48.145   -00 15 23.98  .06449 1.0663 159.3 22.5  35d   3
2018 04 24 08  12 59 38.649   -00 14 31.70  .06447 1.0662 159.2 22.5  35d   3
2018 04 24 09  12 59 29.155   -00 13 39.46  .06446 1.0662 159.1 22.5  36d   3
2018 04 24 10  12 59 19.662   -00 12 47.26  .06445 1.0662 159.1 22.5  36d   3
2018 04 24 11  12 59 10.170   -00 11 55.09  .06443 1.0661 159.0 22.5  36d   3
2018 04 24 12  12 59 00.681   -00 11 02.96  .06442 1.0661 158.9 22.5  36d   3
2018 04 24 13  12 58 51.192   -00 10 10.87  .06441 1.0661 158.8 22.5  36d   3
2018 04 24 14  12 58 41.706   -00 09 18.82  .06439 1.0660 158.7 22.5  36d   3
2018 04 24 15  12 58 32.221   -00 08 26.81  .06438 1.0660 158.7 22.5  36d   3
2018 04 24 16  12 58 22.737   -00 07 34.83  .06437 1.0660 158.6 22.5  36d   3
2018 04 24 17  12 58 13.256   -00 06 42.90  .06436 1.0659 158.5 22.5  36d   3
2018 04 24 18  12 58 03.776   -00 05 51.00  .06434 1.0659 158.4 22.5  36d   3
2018 04 24 19  12 57 54.298   -00 04 59.15  .06433 1.0659 158.4 22.5  36d   3
2018 04 24 20  12 57 44.822   -00 04 07.33  .06432 1.0658 158.3 22.5  36d   3
2018 04 24 21  12 57 35.348   -00 03 15.56  .06431 1.0658 158.2 22.5  36d   3
2018 04 24 22  12 57 25.875   -00 02 23.82  .06429 1.0658 158.1 22.5  36d   3
2018 04 24 23  12 57 16.405   -00 01 32.12  .06428 1.0657 158.0 22.5  36d   3
2018 04 25 00  12 57 06.936   -00 00 40.47  .06427 1.0657 158.0 22.6  36d   3